Temp
22 21 21 21 21 20 20 20 19 19 18 18 18 17 17 17 17 17 18 17 17 17 17 18 19 19 18 18 18 17 17 16 17 18 18 17 19 20 21 21 19 20 19
21 21 21 21 20 20 19 19 18 18 18 17 17 17 17 16 16 16 15 15 16 17 17 17 17 18 18 17 17 17 17 17 16 19 20 18 19 20 20 21 20 19 19
21 21 20 20 19 19 19 18 18 18 17 17 16 16 16 16 16 15 15 14 15 16 16 16 17 16 17 17 16 17 17 18 17 17 19 18 18 19 20 20 20 19 19
21 20 20 19 19 18 18 18 17 17 17 17 15 15 15 15 15 15 15 14 14 15 16 16 16 17 17 17 17 17 17 17 17 17 17 17 17 19 18 17 19 19 19
20 19 19 19 18 18 17 17 17 17 16 16 15 15 14 14 14 14 14 13 14 15 15 15 16 16 16 16 16 17 17 16 16 16 17 17 18 17 18 17 18 17 18
19 19 18 18 17 17 16 16 16 16 15 14 14 14 14 14 14 14 14 14 13 14 14 15 15 15 16 16 16 17 16 16 16 16 17 17 17 17 17 17 16 16 18
18 18 17 17 16 16 16 16 16 15 13 13 13 13 13 14 14 14 14 14 14 14 15 15 15 15 15 15 16 17 15 15 16 16 16 17 17 17 17 17 17 17 18
17 17 17 16 16 15 15 15 14 13 13 12 13 13 13 13 14 14 14 13 13 14 14 14 15 15 16 15 15 15 16 15 16 16 16 16 17 17 17 17 17 17 17
17 17 16 15 15 15 15 14 13 12 13 12 13 13 13 13 14 13 13 13 12 12 13 13 13 14 15 16 15 15 16 16 16 16 16 16 16 17 17 16 16 16 16
16 16 15 14 14 14 13 12 12 12 12 12 13 13 13 13 13 13 12 12 12 12 12 12 13 13 14 15 15 15 15 16 16 16 16 16 16 16 17 16 16 16 16
14 13 13 14 13 12 12 11 12 12 12 12 12 13 13 13 13 12 12 12 12 11 12 12 12 13 13 14 14 14 16 15 15 15 16 16 15 16 16 16 16 15 16
12 13 13 13 12 11 11 11 11 11 11 11 12 11 12 12 12 12 13 12 12 11 12 12 13 13 13 14 14 14 15 15 15 15 15 15 15 16 15 15 17 16 15
12 12 12 12 11 11 11 11 10 10 10 10 10 10 12 13 13 13 14 13 12 12 12 12 13 13 14 14 14 14 14 14 14 15 15 15 15 15 15 15 16 16 16
11 11 11 11 11 11 10 9 9 9 10 10 10 10 11 13 13 13 13 12 13 13 12 12 12 13 13 13 14 14 14 14 14 15 15 15 15 15 15 14 15 16 15
11 11 11 11 10 10 10 10 10 10 9 10 10 10 11 12 13 12 13 13 13 13 12 12 11 12 13 13 14 14 14 15 15 14 15 15 15 14 14 14 15 15 15
10 10 10 10 10 10 10 10 10 9 9 9 10 10 11 11 13 13 13 13 13 13 13 12 12 12 12 13 13 13 14 14 14 14 15 15 15 14 14 14 14 14 15
9 9 10 10 10 10 10 10 9 10 10 10 10 10 10 12 13 13 13 13 13 13 12 12 12 11 12 12 12 13 14 14 14 14 15 15 14 15 14 14 14 14 14
9 9 9 10 10 11 10 10 9 9 10 10 10 10 11 12 13 13 13 13 13 12 11 11 12 11 11 12 12 12 13 13 14 14 14 14 14 14 13 13 14 14 14
9 9 9 10 11 11 11 11 10 9 9 10 11 11 12 13 13 13 13 14 13 12 12 11 12 12 12 12 11 12 12 12 13 13 13 14 14 14 13 13 13 13 13
8 9 9 9 10 11 11 11 10 10 9 10 10 10 11 12 12 13 13 13 13 13 12 12 12 12 12 11 11 11 12 12 12 12 12 13 13 13 13 13 13 13 13
8 8 8 8 9 9 9 11 10 10 9 10 10 10 11 11 11 12 13 14 13 13 13 12 11 11 12 12 12 11 12 12 12 12 12 12 12 12 12 12 12 12 12
8 8 9 8 8 8 9 9 9 9 10 10 10 11 11 12 11 12 12 12 13 13 13 13 12 12 12 12 12 12 12 12 12 12 12 12 12 11 11 11 11 11 11
7 7 8 8 8 9 8 9 9 9 8 10 9 9 10 11 12 12 13 11 12 12 13 13 13 12 12 12 12 12 11 12 12 12 12 12 12 12 12 12 11 11 11
6 6 7 7 7 7 8 7 7 7 8 7 7 8 9 10 11 11 11 11 11 12 12 13 13 13 13 12 12 12 12 12 13 12 12 12 12 12 12 12 12 11 11
6 6 5 6 6 6 5 5 6 5 6 6 6 7 7 10 9 9 9 9 9 10 11 12 12 12 13 13 13 13 13 13 12 13 12 12 12 12 12 12 12 11 11
4 4 4 5 5 5 4 4 5 5 5 5 5 6 7 7 7 7 8 8 9 9 9 10 10 10 11 12 13 13 12 12 12 12 12 12 12 12 12 11 11 11 11
Height
1554 1555 1555 1555 1554 1552 1549 1547 1544 1541 1538 1534 1532 1530 1528 1526 1525 1524 1523 1521 1519 1520 1519 1517 1516 1516 1515 1514 1516 1517 1518 1519 1514 1513 1516 1518 1516 1517 1518 1517 1516 1514 1514
1551 1551 1551 1550 1548 1546 1543 1540 1537 1533 1530 1527 1523 1520 1518 1516 1515 1513 1511 1511 1509 1509 1509 1509 1507 1507 1506 1506 1507 1506 1508 1509 1508 1503 1508 1510 1509 1510 1510 1509 1510 1508 1508
1547 1548 1547 1545 1542 1539 1536 1533 1529 1525 1520 1517 1515 1512 1510 1507 1505 1504 1502 1501 1500 1499 1498 1498 1498 1498 1497 1496 1497 1498 1497 1497 1498 1497 1496 1500 1501 1503 1502 1501 1503 1502 1502
1544 1543 1541 1538 1536 1533 1529 1525 1521 1517 1511 1508 1505 1503 1501 1498 1496 1494 1493 1491 1490 1488 1487 1486 1486 1487 1486 1487 1487 1486 1487 1488 1488 1489 1488 1490 1493 1494 1495 1495 1496 1496 1496
1538 1536 1535 1532 1529 1526 1523 1519 1514 1509 1503 1499 1496 1494 1491 1489 1488 1486 1484 1481 1479 1478 1476 1475 1475 1475 1475 1476 1478 1477 1478 1479 1480 1480 1479 1481 1483 1483 1486 1489 1489 1491 1490
1533 1531 1528 1525 1523 1519 1515 1510 1504 1499 1495 1491 1488 1485 1483 1480 1479 1478 1476 1472 1469 1467 1465 1465 1464 1463 1464 1465 1466 1466 1468 1469 1470 1471 1471 1472 1475 1479 1482 1484 1484 1485 1485
1526 1524 1521 1518 1514 1510 1506 1501 1496 1490 1487 1484 1481 1478 1475 1472 1470 1469 1466 1462 1458 1456 1454 1453 1452 1452 1453 1453 1453 1454 1454 1457 1459 1462 1462 1463 1466 1470 1474 1475 1476 1478 1478
1519 1516 1514 1510 1506 1503 1498 1493 1488 1483 1480 1477 1474 1471 1468 1465 1463 1460 1457 1453 1449 1446 1443 1441 1440 1439 1439 1441 1442 1442 1442 1444 1446 1450 1450 1453 1457 1462 1464 1466 1468 1470 1472
1512 1508 1506 1502 1498 1494 1489 1483 1480 1476 1472 1469 1466 1463 1460 1457 1455 1452 1449 1445 1441 1436 1432 1430 1428 1427 1426 1429 1431 1431 1431 1432 1435 1437 1440 1443 1446 1451 1455 1458 1459 1461 1463
1504 1500 1496 1493 1489 1485 1481 1476 1472 1469 1465 1462 1458 1456 1453 1450 1447 1445 1442 1438 1433 1426 1423 1420 1417 1415 1415 1417 1419 1420 1421 1420 1423 1427 1429 1432 1435 1438 1442 1446 1450 1449 1454
1494 1491 1489 1486 1481 1477 1473 1469 1465 1461 1458 1455 1451 1448 1447 1444 1440 1438 1436 1431 1425 1419 1411 1403 1409 1406 1404 1405 1407 1409 1409 1412 1413 1415 1418 1421 1423 1425 1428 1430 1434 1439 1442
1489 1486 1483 1479 1474 1471 1467 1463 1458 1454 1450 1447 1444 1442 1440 1438 1435 1432 1429 1424 1418 1412 1406 1403 1396 1394 1394 1394 1396 1397 1399 1401 1403 1404 1407 1409 1411 1413 1416 1420 1423 1427 1432
1484 1479 1475 1472 1468 1464 1461 1456 1451 1448 1444 1440 1438 1436 1434 1431 1428 1427 1424 1418 1413 1408 1402 1394 1386 1382 1383 1383 1384 1386 1389 1391 1392 1393 1396 1398 1400 1405 1409 1413 1415 1418 1420
1477 1473 1469 1465 1462 1459 1456 1452 1447 1443 1438 1435 1432 1430 1427 1425 1424 1422 1417 1412 1408 1403 1396 1387 1377 1372 1374 1374 1375 1377 1378 1380 1381 1384 1386 1389 1393 1396 1398 1402 1404 1406 1409
1474 1470 1465 1461 1457 1453 1450 1445 1441 1437 1433 1428 1426 1425 1423 1420 1419 1416 1413 1408 1404 1398 1391 1384 1374 1367 1367 1367 1368 1368 1369 1368 1371 1374 1377 1381 1384 1386 1386 1390 1393 1396 1398
1471 1466 1461 1457 1453 1449 1444 1437 1434 1428 1425 1421 1419 1420 1419 1416 1413 1413 1410 1406 1401 1395 1390 1383 1378 1372 1366 1363 1362 1362 1362 1361 1363 1367 1371 1374 1376 1377 1378 1381 1383 1385 1388
1468 1462 1456 1452 1449 1444 1439 1433 1427 1423 1418 1416 1418 1417 1414 1411 1409 1409 1407 1404 1399 1394 1388 1384 1380 1373 1369 1362 1357 1356 1357 1358 1360 1364 1366 1368 1368 1368 1371 1372 1374 1377 1380
1464 1459 1454 1449 1445 1440 1435 1429 1425 1422 1420 1418 1418 1412 1409 1406 1407 1407 1405 1402 1398 1394 1388 1383 1381 1377 1372 1365 1357 1346 1346 1357 1359 1361 1361 1363 1364 1364 1366 1366 1368 1371 1374
1461 1455 1450 1446 1442 1437 1432 1427 1425 1419 1418 1416 1413 1409 1407 1406 1406 1405 1404 1402 1399 1396 1391 1386 1382 1379 1376 1371 1367 1360 1358 1357 1358 1361 1361 1362 1362 1362 1362 1364 1367 1369 1373
1457 1452 1447 1442 1438 1434 1430 1427 1425 1421 1417 1415 1411 1409 1407 1406 1406 1405 1404 1403 1401 1398 1395 1390 1386 1382 1379 1377 1374 1371 1371 1369 1367 1366 1365 1364 1364 1366 1365 1362 1364 1368 1369
1457 1451 1446 1441 1437 1433 1429 1426 1424 1421 1418 1415 1414 1411 1410 1407 1406 1405 1404 1402 1401 1400 1398 1395 1393 1389 1385 1382 1380 1379 1379 1378 1375 1373 1373 1372 1372 1372 1372 1372 1372 1372 1374
1456 1451 1446 1441 1438 1433 1429 1427 1424 1422 1420 1418 1415 1413 1410 1409 1406 1405 1404 1403 1402 1401 1400 1399 1397 1395 1392 1390 1386 1385 1386 1384 1383 1382 1382 1381 1381 1380 1381 1381 1380 1381 1383
1454 1449 1447 1443 1439 1436 1432 1428 1425 1423 1420 1417 1416 1413 1412 1409 1407 1405 1403 1402 1402 1401 1401 1399 1398 1398 1396 1393 1393 1392 1391 1390 1389 1389 1389 1388 1388 1388 1388 1389 1389 1389 1391
1453 1450 1447 1444 1440 1436 1433 1430 1428 1425 1422 1419 1416 1415 1413 1410 1406 1405 1404 1403 1402 1401 1400 1400 1398 1397 1397 1397 1396 1395 1394 1393 1393 1393 1392 1392 1393 1393 1393 1394 1395 1394 1395
1455 1451 1448 1444 1441 1438 1435 1432 1428 1427 1424 1422 1419 1417 1415 1412 1411 1408 1407 1405 1404 1403 1402 1400 1399 1398 1397 1397 1397 1396 1396 1395 1395 1395 1394 1394 1395 1394 1395 1396 1397 1397 1397
1457 1453 1449 1446 1443 1439 1436 1433 1430 1428 1426 1424 1422 1419 1415 1412 1413 1412 1409 1408 1406 1404 1404 1402 1401 1400 1398 1397 1397 1396 1396 1396 1396 1396 1397 1397 1396 1395 1395 1396 1396 1396 1396
Wind_Speed
15 15 17 17 19 22 25 28 30 32 33 35 36 36 37 36 34 34 35 35 38 34 32 32 33 31 34 38 39 36 37 34 35 30 27 25 28 24 24 26 26 23 26
15 16 18 21 22 25 29 31 32 34 36 37 38 39 39 39 38 34 30 29 32 35 36 35 35 32 34 33 34 37 38 37 37 42 35 28 31 27 26 30 27 23 23
16 18 19 21 24 29 31 36 39 40 40 37 36 37 38 40 39 33 31 29 31 34 38 38 38 36 35 37 36 36 36 38 37 39 44 35 33 30 30 31 25 22 20
16 19 22 23 26 30 34 39 40 41 41 38 36 37 38 36 35 32 32 30 30 32 35 38 40 42 41 39 38 38 35 35 36 40 39 39 32 35 30 26 24 21 19
20 21 24 28 30 34 38 40 43 42 39 37 37 38 33 32 30 29 30 29 31 33 34 35 36 38 39 39 37 40 40 37 36 36 38 37 38 35 33 26 22 15 16
24 27 28 30 34 38 40 43 44 42 36 31 31 30 32 30 29 30 30 32 32 32 34 35 35 36 37 39 38 40 43 40 38 36 39 40 38 36 31 22 17 15 14
29 28 31 35 37 41 43 45 43 37 31 28 28 29 29 28 27 27 29 32 34 35 37 38 37 36 35 34 36 38 40 42 46 42 40 42 39 39 31 24 21 20 18
30 32 37 38 40 42 43 40 34 28 26 29 29 29 28 29 26 27 28 30 32 34 38 39 39 40 40 36 36 36 35 38 39 44 48 47 43 36 35 32 28 26 22
36 37 36 36 38 39 38 34 28 28 28 29 29 30 28 29 27 27 27 31 32 31 33 37 39 41 40 36 34 36 35 36 40 38 38 43 45 47 47 31 30 25 27
39 39 33 33 36 36 33 31 28 28 30 29 30 29 28 30 27 25 25 30 32 35 31 35 30 35 36 34 32 33 34 39 39 40 39 38 38 40 46 44 38 30 30
30 27 29 31 32 32 31 29 29 31 32 31 29 29 26 24 24 21 20 28 29 34 27 33 26 25 25 28 31 34 36 35 37 39 39 37 37 39 43 48 48 38 34
23 26 29 30 30 28 29 32 32 32 32 31 30 28 24 21 17 18 22 30 26 26 26 29 28 27 27 26 27 33 34 32 33 36 36 37 34 34 35 35 39 38 34
27 30 31 30 28 27 25 29 27 24 25 24 23 23 23 20 18 23 24 27 19 20 25 27 28 23 24 27 27 29 30 30 31 36 37 37 35 32 32 32 32 35 40
27 27 25 24 25 24 23 20 22 24 26 22 23 23 20 11 21 18 19 18 20 22 27 30 32 21 21 22 23 24 26 31 32 33 36 35 34 33 33 31 36 33 30
25 24 23 23 23 22 22 28 30 30 28 27 24 19 16 22 17 16 17 18 22 24 24 29 27 16 12 14 17 21 23 25 32 34 33 32 32 30 31 33 36 34 37
25 28 24 22 24 26 29 33 35 25 23 19 14 13 19 23 13 12 14 17 20 21 21 20 20 18 23 14 17 16 15 15 22 23 22 23 26 28 29 30 31 34 36
25 24 24 22 23 24 30 34 27 21 26 3 3 16 20 25 8 8 11 17 15 17 17 15 15 18 20 18 8 16 11 7 9 13 15 17 18 25 24 26 34 32 36
22 22 20 20 23 25 31 31 24 21 19 8 15 19 15 8 3 6 10 11 12 13 14 12 12 14 17 22 19 13 13 8 5 3 4 9 10 17 20 23 18 19 27
24 23 22 22 23 25 30 22 18 17 14 16 19 15 6 6 6 6 7 9 12 13 15 15 15 12 11 16 20 25 22 19 17 13 6 2 4 7 16 20 19 22 28
24 20 20 19 18 21 25 13 13 17 18 14 16 11 7 6 8 6 5 7 10 12 14 17 21 19 13 12 14 16 16 19 19 19 20 16 15 13 12 13 15 16 20
20 19 18 16 14 18 20 13 11 13 18 10 15 9 13 11 9 7 5 8 8 10 11 13 14 17 20 22 21 17 16 16 17 16 16 17 15 18 19 19 17 17 16
15 17 21 20 16 14 14 15 11 8 9 16 6 4 4 9 8 6 6 6 5 7 9 9 10 12 12 16 18 17 17 17 17 16 15 14 14 15 16 16 17 17 16
14 15 14 14 17 20 20 14 10 10 10 9 7 2 5 6 7 7 4 2 3 3 2 3 6 6 6 7 8 9 9 11 12 11 13 14 13 13 13 12 12 12 11
17 14 13 15 16 16 14 14 16 14 11 14 16 15 12 10 10 10 9 7 3 2 1 1 3 6 5 5 6 6 5 5 7 5 6 8 8 9 8 8 7 7 6
17 16 15 14 14 15 15 17 17 17 17 17 17 18 19 18 15 13 11 10 9 7 5 3 3 4 5 3 4 5 5 5 2 2 2 2 1 2 3 3 3 2 2
20 18 17 16 15 14 14 16 15 15 15 17 17 17 15 15 15 14 14 13 11 9 9 8 7 7 5 3 4 5 4 4 1 3 2 3 2 2 3 3 4 4 4
Wind_Direction
243 254 270 270 281 291 300 304 304 300 295 290 289 291 293 294 295 291 282 272 272 266 265 268 266 260 260 258 253 257 256 250 252 263 266 264 271 270 254 257 265 273 278
250 260 266 278 295 305 309 311 309 303 297 289 286 287 289 294 296 295 284 275 268 264 261 261 264 264 264 261 257 256 255 251 255 264 266 258 272 278 263 257 264 269 273
255 270 283 296 307 309 308 312 311 307 300 292 286 283 285 289 290 289 286 279 273 269 268 265 263 262 265 267 259 256 256 255 253 260 264 262 265 272 270 264 259 262 261
281 292 299 304 305 306 309 312 311 309 303 292 286 286 288 288 288 288 286 283 280 276 273 269 266 265 267 261 261 263 262 261 259 260 265 264 261 269 264 266 258 248 254
291 294 302 298 303 304 306 309 310 307 302 290 286 289 288 289 289 287 289 284 282 280 278 274 269 265 264 262 257 258 259 256 260 261 262 256 261 260 253 266 264 254 250
295 294 296 300 303 301 307 311 311 309 303 293 288 287 288 288 290 293 294 290 282 276 276 273 271 268 264 259 258 257 253 253 258 261 254 257 254 257 253 260 257 241 250
295 297 302 301 298 301 305 308 307 304 300 293 290 292 292 292 296 298 298 292 284 279 276 275 271 266 264 262 262 261 256 252 248 252 254 254 254 254 256 253 250 247 256
302 302 301 298 296 300 304 306 305 298 294 296 297 294 296 295 298 299 301 296 290 283 277 274 270 268 265 261 262 261 260 255 249 247 250 252 255 249 252 254 263 258 259
300 297 295 293 298 303 304 305 300 298 297 297 299 297 297 299 296 300 301 301 294 292 294 280 267 263 264 261 261 258 257 257 257 253 253 250 249 250 252 252 247 241 251
298 296 290 295 299 301 302 302 300 299 299 299 298 299 298 300 300 297 295 303 301 312 299 286 272 265 261 258 255 254 258 257 258 252 254 255 250 244 246 248 245 242 244
300 296 295 297 301 303 301 301 302 301 299 299 299 301 300 304 302 297 302 310 311 309 315 300 287 280 273 255 245 246 253 261 259 255 257 257 255 247 244 244 244 238 238
305 300 303 305 304 304 303 302 301 300 299 296 295 297 294 307 303 306 309 315 303 296 305 317 302 276 264 262 250 246 249 255 253 253 254 253 251 244 241 239 241 237 237
306 307 306 305 305 308 309 314 309 301 296 292 290 289 297 300 321 316 308 303 305 317 320 323 312 289 260 256 251 247 249 248 247 246 249 248 248 245 243 244 246 251 251
323 319 314 308 305 306 311 315 315 309 305 295 288 292 300 296 291 300 302 309 324 322 327 333 326 281 266 256 257 246 250 245 244 244 243 247 250 250 248 245 252 246 240
324 325 321 319 311 304 305 310 316 312 305 294 285 289 292 293 299 306 310 318 325 329 330 340 347 356 288 273 260 264 254 247 239 240 238 244 249 252 253 246 244 246 238
326 322 318 319 319 315 313 315 317 314 306 289 276 267 290 299 287 302 311 321 328 327 330 333 348 353 3 317 275 265 248 241 230 230 236 243 249 253 253 246 248 233 224
324 322 318 316 321 324 323 322 319 332 348 327 311 284 283 305 274 300 319 332 335 336 338 337 356 5 4 5 323 233 205 202 212 223 239 251 264 254 251 247 237 224 223
331 323 325 319 322 324 327 327 319 316 335 312 277 339 319 317 286 322 344 8 2 354 353 352 353 12 10 17 16 66 103 143 162 168 237 248 247 254 233 234 226 197 211
330 326 319 314 317 320 332 336 340 340 338 340 324 0 27 345 329 343 6 37 27 17 21 19 15 8 11 20 24 43 55 64 71 69 99 133 76 228 224 221 215 216 212
338 337 330 329 326 334 343 330 338 352 9 354 9 4 25 354 357 355 6 28 25 32 26 29 35 38 40 31 35 38 40 47 54 57 63 76 86 86 96 116 144 165 164
360 358 352 351 347 354 350 329 316 332 357 2 20 34 22 7 4 355 2 17 14 23 25 34 32 38 49 57 58 54 50 48 48 64 69 67 66 70 73 84 99 101 119
332 355 18 20 8 5 360 352 352 341 355 3 95 41 275 303 342 6 3 6 360 18 23 32 25 32 41 49 59 49 46 47 53 60 64 70 74 79 83 88 93 97 99
3 356 353 7 11 12 20 10 2 23 37 14 12 337 341 37 29 22 32 52 62 141 266 9 27 26 26 28 33 35 40 50 54 62 63 65 72 75 76 75 79 87 94
21 16 15 14 13 11 14 25 26 36 47 53 43 37 29 21 47 39 34 33 36 64 254 295 355 360 349 309 351 7 8 27 46 69 79 63 67 70 71 75 76 84 90
16 16 19 22 13 16 20 37 35 34 40 41 48 48 41 31 26 43 39 40 41 32 34 30 358 6 7 328 302 321 355 10 85 51 17 356 117 60 46 44 65 74 98
17 15 16 13 15 12 18 22 20 24 24 34 35 36 33 31 29 25 34 33 24 28 21 12 2 351 344 320 288 274 273 262 310 262 258 280 316 342 356 358 343 339 309